Temperature
20 20 20 20 20 19 19 19 19 19 19 19 19 19 19 19 19 19 19 19 19 19 19 19 19 19 19 19 19 19 19 19 19 19 19 19 19 19 19 19 19 19 18
21 20 20 20 20 20 20 20 20 20 19 19 19 19 19 19 19 19 19 19 19 19 19 19 19 19 19 19 20 20 20 19 19 19 19 19 19 19 19 19 19 19 19
21 20 20 20 20 20 20 20 20 20 20 19 19 19 19 19 19 19 19 19 19 19 19 19 19 19 19 19 20 20 20 20 20 20 19 19 19 19 19 19 19 19 19
21 21 21 21 20 20 20 20 20 20 20 20 20 20 20 20 20 20 19 19 19 19 19 19 19 19 19 19 19 19 19 20 19 19 19 19 19 19 19 19 19 19 19
21 21 21 21 21 21 20 20 20 20 20 20 20 20 20 19 19 19 19 19 19 19 19 19 19 19 19 19 19 19 19 19 19 19 19 19 19 19 18 18 18 18 18
21 21 21 21 21 21 21 20 20 20 20 20 20 20 20 20 19 19 19 19 19 19 19 19 19 19 19 19 19 19 19 19 19 19 18 18 18 17 18 18 17 17 18
21 21 21 21 21 21 21 21 21 20 20 20 20 20 20 20 19 19 19 19 19 19 19 19 19 19 18 18 18 18 18 18 18 18 18 17 17 17 17 17 17 17 17
21 21 21 21 21 21 21 21 20 20 20 20 19 19 19 20 19 19 19 19 19 19 19 19 19 19 18 18 18 18 18 18 18 18 18 18 17 17 17 18 17 17 17
21 21 20 20 21 21 21 21 20 20 19 19 19 19 19 19 19 19 18 18 18 18 18 18 18 18 18 18 18 18 18 18 18 18 18 17 17 17 17 18 17 17 17
20 20 20 20 20 20 20 20 20 20 19 19 19 19 19 19 19 19 18 18 18 18 18 18 18 18 18 18 18 18 18 18 18 18 18 17 17 17 17 17 17 17 17
20 20 20 20 20 20 20 19 19 19 19 19 19 19 19 19 19 19 18 18 18 18 18 18 18 18 18 18 18 18 18 18 18 18 18 18 17 17 17 17 17 17 17
20 20 20 20 20 20 19 19 19 19 19 19 19 19 19 19 19 18 18 18 18 17 17 18 18 18 18 18 18 18 18 18 18 18 18 18 17 17 17 17 17 17 17
20 20 20 20 20 20 20 19 19 19 19 19 19 19 19 18 18 18 18 18 18 18 18 17 17 18 18 18 18 17 17 18 18 18 18 18 17 17 17 17 17 17 17
20 20 20 20 20 20 20 20 20 20 19 19 19 19 18 18 18 18 18 17 17 17 17 18 18 17 17 18 17 18 18 18 18 18 18 17 17 17 17 17 17 17 17
20 20 20 20 20 20 20 20 19 19 19 19 19 18 18 18 18 18 18 17 17 17 17 17 18 17 17 18 18 18 18 18 18 18 18 17 17 17 18 17 17 17 17
21 20 20 20 20 20 20 20 20 19 19 19 18 18 18 18 18 18 18 18 18 17 17 17 17 17 18 18 18 18 18 18 18 18 18 18 17 17 18 18 18 17 17
21 21 21 20 20 20 20 20 20 19 18 18 18 18 18 18 18 18 18 18 17 17 17 17 17 17 18 18 18 18 18 18 18 18 18 18 18 17 17 18 18 18 17
21 21 21 21 21 20 20 20 19 19 18 18 18 18 18 18 18 18 17 18 17 17 17 17 17 17 17 18 18 18 18 18 18 18 18 18 18 18 18 18 18 18 17
21 21 21 21 21 21 20 20 19 19 18 18 18 18 18 17 17 17 17 18 18 18 18 18 18 17 17 17 18 18 18 18 18 18 18 18 18 18 18 18 18 18 18
21 21 21 20 20 20 20 19 19 18 18 18 18 17 17 17 17 17 17 18 18 18 18 18 17 17 17 17 17 17 17 18 18 18 18 18 18 18 18 18 18 18 18
20 20 19 19 19 19 19 18 18 18 18 17 17 17 17 17 17 18 18 18 18 18 17 17 17 17 17 17 16 16 17 17 18 18 19 19 19 18 18 18 18 18 18
20 20 19 19 19 19 19 19 18 18 18 18 17 17 17 17 18 18 18 18 17 17 17 16 16 16 16 16 16 16 16 16 18 18 19 19 19 19 19 18 18 18 18
20 20 19 19 19 19 19 18 18 18 18 17 17 18 18 18 18 18 18 17 17 17 16 16 16 15 15 16 16 15 15 16 16 18 18 19 19 19 19 18 18 18 18
19 19 19 19 19 19 18 18 18 18 18 18 18 18 18 17 17 17 17 17 17 16 16 15 15 15 15 15 15 15 15 15 15 17 17 18 18 18 18 18 18 18 18
18 19 19 19 19 19 18 17 17 17 17 17 17 17 17 17 17 17 17 17 16 15 15 15 15 14 14 15 15 15 15 15 15 15 16 17 17 17 18 18 18 17 17
17 18 18 19 19 18 17 16 16 16 16 16 16 16 16 16 16 16 16 16 15 15 15 14 14 14 14 14 14 14 14 14 14 15 15 15 16 17 17 17 17 17 17
Wind_Speed
8 13 20 20 18 17 16 15 15 15 15 16 17 16 15 14 13 12 11 10 9 8 7 7 9 9 9 10 10 9 9 9 10 9 9 9 8 8 9 10 10 9 10
13 17 20 20 19 18 17 16 15 15 14 14 15 15 14 13 12 10 10 9 8 7 6 5 6 8 8 8 8 8 7 7 7 8 7 6 5 5 6 8 8 7 9
15 17 20 20 20 18 17 16 15 15 14 13 13 13 14 13 12 10 9 8 8 7 6 5 5 6 6 7 7 7 6 5 5 5 5 3 2 2 4 6 7 7 7
15 18 19 21 20 19 17 16 15 15 14 13 13 12 12 12 12 11 9 8 7 6 5 4 4 5 5 6 7 6 6 5 4 4 3 3 2 2 5 6 6 7 7
13 17 20 23 21 20 19 17 16 15 14 12 12 11 10 9 9 9 8 7 6 5 5 5 4 4 4 5 7 6 6 5 5 5 4 4 5 5 6 8 8 8 8
11 16 20 23 22 21 20 19 17 15 14 12 10 9 8 7 7 6 6 6 5 5 5 5 5 4 4 4 4 5 5 6 6 5 5 6 7 8 10 11 11 10 10
10 13 18 22 21 21 20 19 17 15 13 12 10 9 8 7 6 6 5 5 5 5 5 5 5 5 5 5 6 6 6 7 6 6 6 7 7 10 13 15 14 13 12
11 11 16 22 21 20 19 18 16 15 13 11 10 9 8 8 7 7 7 7 6 6 5 5 5 6 6 7 8 8 7 8 8 6 6 7 9 11 13 16 17 16 15
7 8 10 16 19 19 18 17 16 14 12 11 10 9 9 8 8 8 8 8 8 8 8 7 7 8 7 8 9 9 9 10 9 8 8 8 11 13 13 16 19 19 18
7 7 7 11 13 15 16 16 15 14 13 11 11 10 10 10 9 9 9 10 11 11 11 10 10 10 10 10 11 11 12 11 10 9 9 10 13 14 13 13 18 20 20
10 7 6 7 9 10 11 13 13 13 13 12 11 12 11 10 9 9 9 11 13 13 13 13 13 14 13 13 14 14 13 10 10 11 11 13 15 15 15 15 17 20 21
14 12 9 8 8 9 10 9 10 10 12 13 11 9 9 8 9 9 11 14 15 16 16 16 16 16 15 12 14 15 12 12 11 11 13 17 17 16 16 17 18 17 18
14 13 11 9 8 9 7 8 8 9 10 11 11 10 8 8 9 10 10 13 15 15 13 14 14 13 12 12 12 12 12 12 11 12 14 18 18 17 17 17 18 16 16
12 13 10 10 9 9 9 8 8 7 7 7 9 10 8 7 7 8 8 11 11 11 10 11 10 11 11 13 12 12 13 12 11 11 13 18 19 17 17 16 16 16 17
14 14 13 13 12 9 7 6 7 8 9 10 11 12 13 8 6 7 7 9 10 11 9 8 8 8 9 10 10 11 12 13 14 13 12 17 19 19 17 16 15 17 18
13 14 13 14 14 11 10 8 6 8 10 11 12 14 15 13 9 7 7 7 8 10 10 8 8 6 6 6 9 10 11 12 14 14 13 14 18 19 18 16 16 15 15
13 12 13 14 13 13 12 11 8 9 10 9 11 13 14 14 12 9 7 7 8 10 9 7 7 6 6 7 9 10 9 10 11 13 14 13 14 16 17 17 16 14 14
12 13 15 15 15 15 13 12 8 10 10 10 11 12 14 14 13 8 6 7 10 9 6 6 6 5 6 7 8 8 8 8 11 12 14 14 13 12 13 15 16 16 16
13 13 15 15 15 16 15 12 10 9 9 10 10 9 11 12 12 9 6 7 9 6 6 6 6 5 6 7 8 8 7 8 9 10 11 12 12 12 11 13 15 17 17
6 8 9 10 11 11 9 8 8 8 7 6 7 8 10 10 10 8 5 6 6 5 6 6 7 6 6 7 8 8 8 9 8 9 10 8 9 11 11 11 11 12 16
5 5 5 7 8 7 6 7 7 7 6 5 5 8 9 8 6 5 3 4 4 5 6 6 5 7 6 4 4 6 7 8 9 10 9 8 8 8 9 10 10 10 11
7 6 5 6 7 8 7 6 4 4 4 4 5 5 6 5 4 2 1 2 3 4 6 7 6 5 4 4 4 4 5 5 6 7 7 7 7 5 6 8 8 10 11
4 5 4 4 5 7 7 4 3 3 2 2 3 3 3 3 3 2 1 2 4 4 6 8 7 8 6 4 6 6 5 5 4 3 3 3 3 2 3 5 7 10 11
5 4 2 1 1 3 4 6 8 6 4 3 2 2 2 2 2 2 1 2 3 3 4 6 6 5 6 7 4 6 7 4 4 4 3 3 2 2 4 4 6 8 10
5 4 4 3 3 2 1 3 4 4 4 3 3 3 1 1 0 1 1 1 1 1 2 3 4 4 3 5 5 3 5 5 4 4 5 4 4 3 4 5 6 7 9
4 4 4 4 3 4 3 2 4 7 7 6 4 3 1 0 0 2 2 2 2 1 2 2 2 3 2 2 3 3 3 3 4 5 7 6 4 4 4 5 6 6 7
Wind_Direction
167 161 160 153 146 141 135 129 124 120 118 116 116 118 121 124 127 129 128 126 125 120 112 105 106 107 108 110 111 111 112 116 119 115 109 107 110 112 114 111 107 108 110
158 160 160 155 150 146 141 138 133 129 125 122 119 120 123 125 127 126 127 128 128 127 123 120 119 116 116 117 121 124 124 126 130 128 119 110 116 123 126 124 121 121 122
151 159 159 158 156 153 149 146 142 139 136 132 130 130 132 135 139 139 135 133 135 138 136 134 141 140 136 136 139 142 144 145 147 145 126 95 83 143 146 142 139 138 135
152 158 160 162 162 160 157 155 153 150 147 143 140 139 139 141 146 151 153 152 154 157 154 152 157 159 164 167 166 165 166 172 181 179 154 172 196 207 199 173 167 163 158
150 158 165 165 167 167 165 164 163 161 158 152 146 143 144 145 148 154 162 167 169 173 185 187 186 182 184 194 186 185 189 201 211 217 208 219 229 229 208 199 198 192 180
151 162 171 168 171 172 171 172 171 170 167 162 154 151 154 158 162 166 174 184 189 195 204 200 203 207 210 211 209 211 216 227 234 243 249 248 243 239 230 220 216 214 202
152 164 177 172 173 175 176 177 176 174 173 170 166 167 172 177 182 188 197 212 218 215 219 224 224 226 232 237 240 240 243 248 248 248 260 268 260 257 249 230 221 223 219
156 162 177 176 177 179 180 179 181 181 180 180 180 186 193 199 205 204 212 223 234 233 230 237 241 244 249 250 250 250 249 254 261 258 260 269 275 280 262 231 219 222 224
148 152 170 179 181 183 184 184 186 187 188 191 193 196 206 218 223 227 232 236 240 240 237 241 251 258 263 261 259 259 259 260 261 260 264 265 272 280 279 240 222 223 224
152 155 163 171 177 183 189 192 191 193 196 200 204 206 212 224 235 243 243 246 249 248 244 246 253 257 259 260 261 264 265 267 267 265 262 261 266 271 276 261 239 236 233
175 169 165 163 163 168 179 194 196 200 203 208 214 218 218 221 237 253 254 254 257 259 257 257 259 260 260 259 259 260 264 261 261 266 266 262 262 266 269 268 262 251 244
187 184 177 169 159 159 173 177 181 189 196 203 209 219 220 218 228 245 256 259 261 263 263 263 261 260 261 257 259 261 258 258 258 262 264 261 258 259 266 266 272 259 246
188 188 185 175 166 166 167 166 177 183 189 197 203 209 217 227 232 241 250 259 263 265 265 263 265 260 256 253 255 257 255 259 258 259 262 267 266 262 263 266 270 253 243
185 190 183 178 178 180 176 178 184 189 190 194 201 206 212 229 236 238 244 252 256 257 254 252 252 257 262 261 254 256 259 257 256 256 261 268 269 265 264 269 266 249 247
188 190 186 184 186 188 187 187 191 200 200 199 204 211 215 222 234 238 244 252 258 257 253 250 247 250 259 265 260 254 255 256 257 256 259 267 272 272 270 269 266 260 256
193 194 190 192 193 191 195 198 199 206 211 208 211 217 219 223 230 232 240 247 255 255 253 248 245 247 257 262 267 261 257 260 261 259 259 264 268 271 271 266 264 265 260
195 196 196 200 199 198 200 201 202 208 214 220 222 224 225 225 226 228 234 245 253 257 255 252 254 255 260 260 264 266 267 264 259 258 259 259 262 265 268 268 265 262 254
195 199 202 203 201 202 203 202 203 207 208 217 221 222 224 223 222 222 229 240 244 242 238 244 251 257 259 259 262 267 270 269 263 261 262 257 251 252 260 266 264 259 253
208 209 209 208 203 203 203 203 204 204 206 207 205 207 214 214 212 209 221 236 240 237 237 243 246 240 257 263 267 272 269 268 269 268 262 257 249 246 249 257 259 258 256
233 238 240 231 223 209 204 206 207 205 202 192 188 195 204 211 211 206 221 241 244 249 255 253 257 251 251 261 272 273 272 269 268 265 261 256 251 248 245 248 254 257 255
342 323 284 249 238 212 199 199 199 202 197 194 192 191 192 196 192 189 215 248 255 258 267 272 274 271 261 242 255 274 272 268 261 260 253 247 247 245 240 241 245 248 252
347 329 286 248 241 226 214 208 202 192 194 187 175 162 163 157 140 135 161 281 282 279 280 274 263 266 259 219 231 268 287 295 269 254 248 244 248 240 240 245 249 248 249
316 305 283 258 245 243 232 213 194 170 145 146 147 130 101 96 89 74 12 302 285 274 278 278 267 259 264 250 218 228 249 255 292 295 276 267 259 240 248 255 255 255 251
230 222 209 217 242 257 237 214 201 187 176 165 136 117 108 99 90 65 0 302 287 281 282 287 286 276 273 278 260 228 233 245 243 296 316 318 319 272 264 263 261 258 252
220 206 178 150 138 131 235 212 182 128 114 115 112 117 134 115 80 52 4 350 354 355 345 350 342 315 279 279 274 251 238 234 230 240 279 311 320 286 273 271 272 268 257
252 245 215 169 146 124 140 154 144 131 136 144 147 162 164 121 18 15 13 22 24 48 33 18 12 359 343 306 280 245 227 220 217 224 241 256 273 285 285 276 271 268 263
Height
1526 1529 1531 1533 1536 1538 1541 1543 1545 1547 1548 1549 1550 1551 1553 1554 1555 1557 1558 1558 1559 1559 1559 1559 1559 1560 1560 1561 1562 1562 1562 1562 1562 1563 1563 1563 1563 1563 1562 1562 1562 1562 1562
1525 1528 1531 1534 1536 1539 1541 1544 1546 1547 1548 1550 1551 1552 1554 1555 1557 1558 1559 1559 1560 1561 1561 1561 1561 1561 1561 1562 1562 1563 1563 1563 1563 1563 1564 1565 1565 1565 1565 1565 1564 1564 1564
1525 1529 1532 1535 1538 1540 1542 1545 1546 1548 1549 1551 1552 1553 1554 1555 1557 1558 1559 1560 1561 1561 1562 1562 1562 1562 1563 1563 1563 1563 1564 1564 1564 1564 1564 1565 1566 1566 1566 1566 1566 1566 1566
1524 1528 1531 1535 1539 1541 1543 1545 1547 1549 1550 1552 1553 1555 1555 1556 1557 1558 1559 1560 1561 1562 1563 1563 1563 1563 1563 1563 1564 1564 1564 1564 1565 1565 1565 1565 1566 1566 1567 1567 1567 1567 1567
1523 1528 1531 1534 1538 1541 1543 1545 1548 1550 1552 1553 1555 1556 1557 1558 1558 1559 1560 1561 1562 1562 1563 1563 1563 1564 1563 1563 1564 1564 1564 1564 1565 1565 1565 1565 1565 1566 1566 1567 1567 1568 1568
1522 1527 1530 1534 1537 1540 1543 1545 1548 1550 1552 1554 1555 1557 1557 1558 1559 1559 1560 1561 1562 1562 1562 1563 1563 1564 1564 1563 1563 1563 1564 1564 1564 1564 1564 1564 1564 1565 1565 1566 1566 1567 1567
1523 1526 1530 1534 1538 1541 1543 1546 1548 1551 1553 1554 1556 1557 1558 1558 1559 1560 1561 1561 1562 1562 1562 1563 1563 1563 1563 1563 1563 1563 1563 1563 1563 1563 1563 1563 1563 1564 1564 1565 1565 1565 1566
1524 1528 1531 1535 1538 1541 1544 1546 1549 1551 1553 1554 1556 1557 1558 1559 1559 1560 1561 1561 1562 1562 1563 1563 1563 1563 1563 1563 1562 1562 1561 1561 1561 1561 1561 1561 1562 1562 1563 1563 1563 1563 1563
1525 1528 1532 1534 1538 1541 1544 1546 1548 1550 1552 1554 1555 1557 1558 1559 1559 1560 1561 1561 1562 1562 1562 1562 1562 1562 1562 1562 1561 1561 1560 1560 1559 1559 1559 1559 1559 1560 1560 1560 1561 1561 1561
1524 1527 1531 1534 1537 1540 1543 1545 1547 1549 1551 1553 1554 1556 1557 1558 1559 1559 1560 1560 1560 1561 1561 1561 1561 1560 1560 1560 1560 1559 1558 1558 1557 1557 1557 1556 1556 1557 1557 1557 1558 1559 1559
1523 1527 1530 1533 1536 1539 1542 1544 1546 1549 1551 1552 1554 1555 1555 1556 1558 1559 1559 1559 1559 1559 1559 1558 1558 1558 1557 1557 1557 1557 1556 1555 1555 1554 1554 1553 1553 1553 1554 1554 1555 1556 1556
1520 1524 1528 1531 1534 1537 1539 1542 1544 1546 1548 1550 1552 1553 1554 1554 1555 1557 1558 1558 1558 1558 1557 1556 1556 1555 1554 1554 1554 1554 1553 1553 1552 1551 1551 1550 1550 1550 1550 1550 1551 1552 1552
1518 1522 1525 1528 1531 1534 1537 1539 1541 1543 1545 1547 1549 1550 1552 1553 1553 1554 1555 1555 1555 1555 1554 1554 1554 1553 1552 1551 1551 1551 1550 1550 1549 1549 1548 1547 1547 1546 1546 1546 1547 1548 1548
1517 1521 1524 1528 1530 1532 1534 1536 1538 1540 1542 1544 1546 1547 1549 1550 1551 1552 1552 1553 1553 1553 1552 1552 1551 1551 1550 1549 1548 1548 1547 1547 1547 1546 1546 1545 1544 1543 1543 1543 1543 1544 1544
1515 1518 1521 1525 1528 1531 1532 1533 1535 1537 1538 1540 1542 1544 1545 1547 1548 1549 1549 1550 1550 1550 1550 1549 1548 1547 1547 1546 1545 1545 1544 1544 1544 1543 1543 1542 1541 1540 1539 1539 1539 1540 1540
1514 1516 1518 1521 1525 1528 1529 1531 1533 1535 1536 1537 1538 1540 1542 1543 1545 1546 1546 1547 1547 1547 1547 1547 1546 1544 1543 1543 1542 1541 1541 1540 1540 1539 1539 1538 1538 1537 1536 1536 1536 1536 1536
1513 1516 1517 1520 1523 1525 1526 1528 1530 1532 1534 1535 1536 1537 1538 1540 1542 1543 1544 1544 1544 1544 1544 1543 1543 1541 1540 1539 1538 1538 1537 1536 1535 1535 1535 1534 1534 1534 1533 1533 1533 1532 1532
1512 1515 1516 1517 1519 1521 1522 1524 1526 1528 1530 1531 1533 1534 1535 1537 1538 1540 1541 1541 1541 1540 1540 1539 1539 1538 1537 1535 1534 1534 1533 1532 1531 1531 1530 1530 1530 1530 1530 1530 1530 1529 1529
1512 1514 1514 1514 1514 1515 1517 1519 1521 1523 1524 1526 1529 1530 1531 1533 1534 1535 1536 1537 1538 1537 1536 1535 1535 1534 1533 1532 1530 1529 1528 1528 1527 1526 1526 1526 1526 1526 1527 1526 1526 1526 1525
1513 1515 1516 1516 1515 1515 1515 1516 1517 1519 1520 1521 1523 1524 1526 1528 1529 1530 1532 1533 1533 1533 1532 1531 1530 1529 1528 1527 1526 1524 1523 1523 1522 1522 1521 1521 1521 1522 1522 1522 1522 1521 1521
1512 1513 1514 1516 1516 1515 1513 1513 1513 1513 1515 1516 1517 1519 1521 1523 1524 1526 1527 1528 1529 1528 1527 1526 1525 1524 1522 1522 1520 1518 1517 1517 1516 1515 1515 1515 1516 1516 1517 1517 1517 1517 1517
1510 1510 1511 1511 1512 1512 1511 1510 1509 1510 1511 1512 1513 1514 1517 1519 1521 1522 1523 1523 1523 1522 1521 1520 1519 1517 1516 1516 1515 1513 1510 1509 1508 1509 1509 1509 1510 1511 1511 1511 1512 1513 1513
1507 1507 1506 1506 1506 1507 1507 1506 1505 1506 1506 1507 1508 1509 1511 1515 1516 1516 1518 1518 1517 1516 1514 1514 1513 1511 1509 1509 1510 1510 1507 1503 1503 1503 1503 1503 1504 1505 1506 1507 1507 1508 1508
1501 1502 1501 1501 1500 1501 1501 1500 1498 1497 1498 1500 1502 1504 1507 1510 1511 1512 1512 1512 1511 1510 1508 1507 1506 1504 1504 1503 1503 1502 1502 1501 1502 1500 1500 1500 1500 1501 1502 1502 1502 1502 1503
1497 1496 1495 1495 1494 1494 1494 1490 1489 1488 1491 1495 1498 1501 1503 1505 1507 1507 1508 1507 1506 1505 1504 1502 1501 1500 1499 1498 1497 1496 1495 1495 1496 1497 1497 1497 1498 1498 1497 1497 1497 1497 1497
1492 1491 1490 1489 1488 1487 1485 1483 1481 1482 1487 1492 1495 1498 1500 1502 1503 1503 1504 1503 1502 1501 1500 1499 1498 1497 1495 1494 1493 1492 1491 1491 1491 1492 1493 1493 1493 1493 1493 1493 1492 1492 1492